Regional Weather Roundup
Issued by NWS

Home | Current Version | Previous Version | Text Only | Print | Product List | Glossary On
Versions: 1 2 3 4 5 6 7 8 9 10 11 12 13 14 15 16 17 18 19 20 21 22 23 24 25 26 27 28 29 30 31 32 33 34 35 36 37 38 39 40 41 42 43 44 45 46 47 48 49 50
710
ASUS44 KJAN 200210
RWRMS

MISSISSIPPI HOURLY WEATHER ROUNDUP
NATIONAL WEATHER SERVICE JACKSON MS
900 PM CDT SUN OCT 19 2014

NOTE: "FAIR: INDICATES FEW OR NO CLOUDS BELOW 12,000 FEET WITH NO
SIGNIFICANT WEATHER AND/OR OBSTRUCTIONS TO VISIBILITY.

MSZ001>002-007>008-010>013-018>021-025>028-034>036-200300-
NORTHWEST MISSISSIPPI

CITY           SKY/WX    TMP DP  RH WIND       PRES   REMARKS
CLARKSDALE     FAIR      55  50  82 CALM      30.11S
CLEVELAND      FAIR      55  52  90 CALM      30.09F
GREENWOOD      CLEAR     52  50  93 CALM      30.10S
GREENVILLE     CLEAR     55  48  77 CALM      30.10R
GRENADA          N/A    N/A N/A N/A MISG        N/A
OLIVE BRANCH   CLEAR     54  54 100 CALM      30.11F
OXFORD         FAIR      48  48 100 CALM      30.12S
TUNICA         CLEAR     52  48  87 CALM      30.11S
$$

MSZ003>006-009-014>017-022>024-029>033-037>039-200300-
NORTHEAST MISSISSIPPI

CITY           SKY/WX    TMP DP  RH WIND       PRES   REMARKS
COLUMBUS AFB   CLEAR     52  49  91 CALM      30.10S
CORINTH          N/A     50  48  93 CALM        N/A
GOLDN TRIANGLE CLEAR     52  45  76 CALM      30.10S
TUPELO         CLEAR     51  47  86 NE3       30.10S
$$

MSZ040-058-200300-
CENTRAL MISSISSIPPI

CITY           SKY/WX    TMP DP  RH WIND       PRES   REMARKS
JACKSON INTL   CLEAR     53  48  83 CALM      30.10S
JACKSON HAWKNS CLEAR     57  49  74 CALM      30.10R
MERIDIAN KEY   CLEAR     52  49  89 CALM      30.09S
MERIDIAN NAS   CLEAR     54  49  83 CALM      30.10R
RAYMOND        FAIR      50  46  87 CALM      30.10R
VICKSBURG      CLEAR     49  47  93 CALM      30.10S
$$

MSZ059>079-200300-
SOUTH MISSISSIPPI

CITY           SKY/WX    TMP DP  RH WIND       PRES   REMARKS
BROOKHAVEN     FAIR      54  52  94 CALM      30.11R
COLUMBIA         N/A    N/A N/A N/A MISG        N/A
HATTIESBURG    CLEAR     54  52  93 CALM      30.09S
MCCOMB         CLEAR     57  51  80 N3        30.09R
NATCHEZ        CLEAR     55  52  88 CALM      30.10S
PINE BELT      CLEAR     54  46  76 CALM      30.10S
$$

MSZ080>082-200300-
COASTAL MISSISSIPPI

CITY           SKY/WX    TMP DP  RH WIND       PRES   REMARKS
BAY ST LOUIS   CLEAR     57  55  94 CALM      30.08R
BILOXI         CLEAR     64  59  82 NE2       30.07R
PASCAGOULA     CLEAR     54  52  93 CALM      30.08R
GULFPORT       CLEAR     60  55  83 CALM      30.07R
$$



USA.gov is the U.S. government's official web portal to all federal, state and local government web resources and services.